Homestead, FL

5:34 PM EST on February 23, 2017 (GMT -0500)
Dade County-Homestead Regional

Weather History for KHST - November, 2012

Change the Weather History Date:

Friday, November 2, 2012

  Actual Average Record
Temperature  
Mean Temperature 72 °F -  
Max Temperature 81 °F 83 °F 93 °F (1997)
Min Temperature 61 °F 66 °F 46 °F (1957)
Cooling Degree Days 6    
Growing Degree Days 22 (Base 50)    
Moisture  
Dew Point 60 °F    
Average Humidity 78    
Maximum Humidity 100    
Minimum Humidity 30    
Precipitation  
Precipitation 0.00 in - - ()
Sea Level Pressure  
Sea Level Pressure 30.06 in    
Wind  
Wind Speed 4 mph (WSW)    
Max Wind Speed 10 mph    
Max Gust Speed -    
Visibility 9 miles    
Events      
Averages and records for this station are not official NWS values.
T = Trace of Precipitation, MM = Missing Value Source: NWS Daily Summary

Daily Weather History Graph

Daily Weather History Graph

Search for Another Location

Airport or City:

Trip Planner

Search our weather history database for the weather conditions in past years. The results will help you decide how hot, cold, wet, or windy it might be!

Date:

Astronomy

Nov. 02, 2012 Rise Set
Actual Time 7:30 AM EDT 6:39 PM EDT
Civil Twilight 7:06 AM EDT 7:03 PM EDT
Nautical Twilight 6:39 AM EDT 7:30 PM EDT
Astronomical Twilight 6:12 AM EDT 7:57 PM EDT
Moon 9:36 PM EDT (11/2) 10:37 AM EDT (11/2)
Length of Visible Light 11h 56m
Length of Day
11h 08m
Waning Gibbous, 87% of the Moon is Illuminated
Nov 2
Waning Gibbous
Nov 6
Last Quarter
Nov 13
New
Nov 20
First Quarter
Nov 28
Full

Hourly Weather History & Observations

Time (EDT) Temp. Dew Point Humidity Pressure Visibility Wind Dir Wind Speed Gust Speed Precip Events Conditions
12:55 AM 64.8 °F 63.3 °F 95% 30.07 in 10.0 mi South 4.6 mph - N/A   Clear
1:55 AM 64.9 °F 63.5 °F 95% 30.06 in 10.0 mi WSW 3.5 mph - N/A   Clear
2:55 AM 64.9 °F 63.9 °F 96% 30.05 in 10.0 mi SW 4.6 mph - N/A   Clear
3:55 AM 64.6 °F 63.7 °F 97% 30.04 in 10.0 mi SW 4.6 mph - N/A   Clear
4:55 AM 64.0 °F 63.1 °F 97% 30.04 in 10.0 mi WSW 3.5 mph - N/A   Clear
5:22 AM 64.4 °F 62.6 °F 94% 30.04 in 7.0 mi SSW 3.5 mph - N/A   Clear
5:29 AM 64.4 °F 62.6 °F 94% 30.04 in 2.5 mi SSW 3.5 mph - N/A   Clear
5:58 AM 62.6 °F 62.6 °F 100% 30.05 in 1.0 mi SSW 3.5 mph - N/A   Clear
6:01 AM 62.6 °F 62.6 °F 100% 30.05 in 2.0 mi SSW 3.5 mph - N/A   Clear
6:03 AM 62.6 °F 62.6 °F 100% 30.05 in 3.0 mi SSW 3.5 mph - N/A   Clear
6:26 AM 62.6 °F 60.8 °F 94% 30.04 in 6.0 mi SW 3.5 mph - N/A   Clear
6:33 AM 62.6 °F 62.6 °F 100% 30.06 in 8.0 mi SSW 3.5 mph - N/A   Clear
6:55 AM 63.5 °F 63.0 °F 98% 30.06 in 10.0 mi SW 3.5 mph - N/A   Clear
7:55 AM 63.9 °F 63.3 °F 98% 30.06 in 10.0 mi SSE 3.5 mph - N/A   Mostly Cloudy
8:55 AM 67.6 °F 67.1 °F 98% 30.08 in 10.0 mi WSW 3.5 mph - N/A   Partly Cloudy
9:55 AM 73.0 °F 67.8 °F 84% 30.10 in 10.0 mi WNW 6.9 mph - N/A   Clear
10:55 AM 75.9 °F 65.7 °F 70% 30.10 in 10.0 mi NW 9.2 mph - N/A   Mostly Cloudy
11:55 AM 77.4 °F 65.3 °F 66% 30.09 in 10.0 mi NW 9.2 mph - N/A   Scattered Clouds
12:55 PM 79.0 °F 64.6 °F 61% 30.08 in 10.0 mi North 9.2 mph - N/A   Scattered Clouds
1:55 PM 78.8 °F 61.3 °F 55% 30.05 in 10.0 mi NW 6.9 mph - N/A   Clear
2:55 PM 81.1 °F 46.9 °F 30% 30.04 in 10.0 mi Variable 6.9 mph - N/A   Clear
3:55 PM 81.1 °F 50.4 °F 34% 30.03 in 10.0 mi North 10.4 mph - N/A   Clear
4:55 PM 79.9 °F 49.6 °F 35% 30.04 in 10.0 mi NNW 8.1 mph - N/A   Clear
5:55 PM 78.3 °F 49.6 °F 37% 30.04 in 10.0 mi WNW 6.9 mph - N/A   Clear
6:55 PM 73.6 °F 53.4 °F 49% 30.05 in 10.0 mi NW 4.6 mph - N/A   Clear
7:55 PM 68.7 °F 59.4 °F 72% 30.06 in 10.0 mi Calm Calm - N/A   Clear
8:55 PM 67.3 °F 56.7 °F 69% 30.07 in 10.0 mi Calm Calm - N/A   Clear
9:55 PM 64.8 °F 57.2 °F 76% 30.09 in 10.0 mi Calm Calm - N/A   Clear
10:55 PM 66.2 °F 54.5 °F 66% 30.09 in 10.0 mi Calm Calm - N/A   Clear
11:55 PM 61.2 °F 57.4 °F 87% 30.10 in 10.0 mi Calm Calm - N/A   Clear